Time,TemperatureF,DewpointF,PressureIn,WindDirection,WindDirectionDegrees,WindSpeedMPH,WindSpeedGustMPH,Humidity,HourlyPrecipIn,Conditions,Clouds,dailyrainin,SolarRadiationWatts/m^2,SoftwareType,DateUTC
2013-03-26 00:00:00,35.4,35.2,29.68,North,355,0.0,3.0,99,0.00,,,0.57,0.0,meteohub,2013-03-26 04:00:00,
2013-03-26 00:02:00,35.4,35.2,29.68,North,355,0.0,3.0,99,0.00,,,0.57,0.0,meteohub,2013-03-26 04:02:00,
2013-03-26 00:05:00,35.4,35.2,29.68,North,355,0.0,3.0,99,0.00,,,0.57,0.0,meteohub,2013-03-26 04:05:00,
2013-03-26 00:10:00,35.4,35.2,29.68,North,355,0.0,3.0,99,0.00,,,0.57,0.0,meteohub,2013-03-26 04:10:00,
2013-03-26 00:15:00,35.4,35.2,29.69,North,355,0.0,3.0,99,0.00,,,0.57,0.0,meteohub,2013-03-26 04:15:00,
2013-03-26 00:20:00,35.4,35.2,29.69,North,355,0.0,3.0,99,0.00,,,0.57,0.0,meteohub,2013-03-26 04:20:00,
2013-03-26 00:25:00,35.4,35.2,29.69,North,355,1.0,3.0,99,0.00,,,0.57,0.0,meteohub,2013-03-26 04:25:00,
2013-03-26 00:30:00,35.4,35.2,29.69,NW,310,0.0,3.0,99,0.00,,,0.00,0.0,meteohub,2013-03-26 04:30:00,
2013-03-26 00:35:00,35.6,35.4,29.69,NW,318,0.0,3.0,99,0.00,,,0.00,0.0,meteohub,2013-03-26 04:35:00,
2013-03-26 00:40:00,35.6,35.4,29.69,NNW,327,1.0,3.0,99,0.00,,,0.00,0.0,meteohub,2013-03-26 04:40:00,
2013-03-26 00:45:00,35.6,35.6,29.69,NNW,329,0.0,4.0,100,0.00,,,0.00,0.0,meteohub,2013-03-26 04:45:00,
2013-03-26 00:50:00,35.8,35.8,29.69,NNW,336,0.0,4.0,100,0.00,,,0.00,0.0,meteohub,2013-03-26 04:50:00,
2013-03-26 00:55:00,35.8,35.8,29.69,NNW,336,0.0,4.0,100,0.00,,,0.00,0.0,meteohub,2013-03-26 04:55:00,
2013-03-26 01:01:00,35.8,35.8,29.69,NNW,336,0.0,4.0,100,0.00,,,0.00,0.0,meteohub,2013-03-26 05:01:00,
2013-03-26 01:06:00,35.8,35.8,29.69,NNW,336,0.0,4.0,100,0.00,,,0.00,0.0,meteohub,2013-03-26 05:06:00,
2013-03-26 01:11:00,35.8,35.8,29.69,NNW,336,2.0,4.0,100,0.00,,,0.00,0.0,meteohub,2013-03-26 05:11:00,
2013-03-26 01:16:00,35.8,35.8,29.69,NNW,336,0.0,4.0,100,0.00,,,0.00,0.0,meteohub,2013-03-26 05:16:00,
2013-03-26 01:22:00,36.0,36.0,29.69,NNW,346,2.0,4.0,100,0.00,,,0.01,0.0,meteohub,2013-03-26 05:22:00,
2013-03-26 01:27:00,36.0,36.0,29.70,North,355,0.0,4.0,100,0.00,,,0.01,0.0,meteohub,2013-03-26 05:27:00,
2013-03-26 01:32:00,36.0,36.0,29.70,North,355,0.0,3.0,100,0.01,,,0.01,0.0,meteohub,2013-03-26 05:32:00,
2013-03-26 01:37:00,36.0,36.0,29.70,North,355,1.0,3.0,100,0.01,,,0.01,0.0,meteohub,2013-03-26 05:37:00,
2013-03-26 01:42:00,36.0,36.0,29.70,NNW,329,4.0,4.0,100,0.01,,,0.01,0.0,meteohub,2013-03-26 05:42:00,
2013-03-26 01:47:00,36.1,36.1,29.70,North,355,3.0,3.0,100,0.01,,,0.01,0.0,meteohub,2013-03-26 05:47:00,
2013-03-26 01:52:00,36.1,36.1,29.70,NNW,348,1.0,5.0,100,0.01,,,0.01,0.0,meteohub,2013-03-26 05:52:00,
2013-03-26 01:57:00,36.1,36.1,29.70,North,0,1.0,5.0,100,0.01,,,0.01,0.0,meteohub,2013-03-26 05:57:00,
2013-03-26 02:03:00,36.1,36.1,29.71,North,0,1.0,5.0,100,0.01,,,0.01,0.0,meteohub,2013-03-26 06:03:00,
2013-03-26 02:08:00,36.1,36.1,29.71,North,355,2.0,5.0,100,0.01,,,0.01,0.0,meteohub,2013-03-26 06:08:00,
2013-03-26 02:13:00,36.1,36.1,29.71,North,355,3.0,5.0,100,0.01,,,0.01,0.0,meteohub,2013-03-26 06:13:00,
2013-03-26 02:18:00,36.1,36.1,29.71,NNW,336,1.0,8.0,100,0.01,,,0.01,0.0,meteohub,2013-03-26 06:18:00,
2013-03-26 02:23:00,36.1,36.1,29.71,North,0,1.0,8.0,100,0.01,,,0.01,0.0,meteohub,2013-03-26 06:23:00,
2013-03-26 02:28:00,36.1,36.1,29.71,North,355,2.0,8.0,100,0.01,,,0.01,0.0,meteohub,2013-03-26 06:28:00,
2013-03-26 02:34:00,36.1,36.1,29.71,NNW,333,2.0,6.0,100,0.00,,,0.01,0.0,meteohub,2013-03-26 06:34:00,
2013-03-26 02:39:00,36.1,36.1,29.71,NNW,346,2.0,6.0,100,0.00,,,0.01,0.0,meteohub,2013-03-26 06:39:00,
2013-03-26 02:44:00,36.1,36.1,29.71,North,9,1.0,6.0,100,0.00,,,0.01,0.0,meteohub,2013-03-26 06:44:00,
2013-03-26 02:49:00,36.1,36.1,29.72,North,5,1.0,6.0,100,0.00,,,0.01,0.0,meteohub,2013-03-26 06:49:00,
2013-03-26 02:54:00,36.1,36.0,29.72,North,9,1.0,6.0,99,0.00,,,0.01,0.0,meteohub,2013-03-26 06:54:00,
2013-03-26 02:59:00,36.1,36.0,29.72,NNW,336,0.0,6.0,99,0.00,,,0.01,0.0,meteohub,2013-03-26 06:59:00,
2013-03-26 03:04:00,36.1,36.0,29.72,NNE,15,2.0,6.0,99,0.00,,,0.01,0.0,meteohub,2013-03-26 07:04:00,
2013-03-26 03:09:00,36.1,36.0,29.72,NNW,334,2.0,6.0,99,0.00,,,0.01,0.0,meteohub,2013-03-26 07:09:00,
2013-03-26 03:14:00,36.3,36.1,29.72,NNW,327,4.0,7.0,99,0.00,,,0.01,0.0,meteohub,2013-03-26 07:14:00,
2013-03-26 03:19:00,36.3,36.1,29.72,North,5,0.0,7.0,99,0.00,,,0.01,0.0,meteohub,2013-03-26 07:19:00,
2013-03-26 03:25:00,36.3,36.1,29.72,NNW,344,1.0,7.0,99,0.00,,,0.01,0.0,meteohub,2013-03-26 07:25:00,
2013-03-26 03:30:00,36.3,36.1,29.72,NNE,21,1.0,7.0,99,0.00,,,0.01,0.0,meteohub,2013-03-26 07:30:00,
2013-03-26 03:35:00,36.3,36.1,29.72,NW,319,0.0,6.0,99,0.00,,,0.01,0.0,meteohub,2013-03-26 07:35:00,
2013-03-26 03:40:00,36.3,36.1,29.72,NNW,346,1.0,6.0,99,0.00,,,0.01,0.0,meteohub,2013-03-26 07:40:00,
2013-03-26 03:45:00,36.3,36.1,29.72,North,355,4.0,6.0,99,0.00,,,0.01,0.0,meteohub,2013-03-26 07:45:00,
2013-03-26 03:50:00,36.5,36.3,29.72,NW,323,4.0,6.0,99,0.00,,,0.01,0.0,meteohub,2013-03-26 07:50:00,
2013-03-26 03:55:00,36.3,36.1,29.72,NW,325,0.0,7.0,99,0.00,,,0.01,0.0,meteohub,2013-03-26 07:55:00,
2013-03-26 04:01:00,36.5,36.3,29.72,North,355,0.0,7.0,99,0.00,,,0.01,0.0,meteohub,2013-03-26 08:01:00,
2013-03-26 04:06:00,36.5,36.3,29.72,North,355,0.0,7.0,99,0.00,,,0.01,0.0,meteohub,2013-03-26 08:06:00,
2013-03-26 04:11:00,36.5,36.3,29.72,North,355,1.0,7.0,99,0.00,,,0.01,0.0,meteohub,2013-03-26 08:11:00,
2013-03-26 04:16:00,36.3,35.8,29.73,NNW,342,0.0,4.0,98,0.00,,,0.01,0.0,meteohub,2013-03-26 08:16:00,
2013-03-26 04:21:00,36.3,35.8,29.73,North,355,3.0,4.0,98,0.00,,,0.01,0.0,meteohub,2013-03-26 08:21:00,
2013-03-26 04:27:00,36.3,35.8,29.73,NNE,13,0.0,4.0,98,0.00,,,0.01,0.0,meteohub,2013-03-26 08:27:00,
2013-03-26 04:32:00,36.3,35.8,29.73,NNW,345,3.0,4.0,98,0.00,,,0.01,0.0,meteohub,2013-03-26 08:32:00,
2013-03-26 04:37:00,36.3,35.8,29.73,NNW,331,1.0,6.0,98,0.00,,,0.01,0.0,meteohub,2013-03-26 08:37:00,
2013-03-26 04:43:00,36.1,35.6,29.73,North,351,3.0,6.0,98,0.00,,,0.01,0.0,meteohub,2013-03-26 08:43:00,
2013-03-26 04:48:00,36.1,35.6,29.73,North,9,3.0,6.0,98,0.00,,,0.01,0.0,meteohub,2013-03-26 08:48:00,
2013-03-26 04:53:00,36.1,35.6,29.73,North,355,1.0,6.0,98,0.00,,,0.01,0.0,meteohub,2013-03-26 08:53:00,
2013-03-26 04:58:00,36.1,35.6,29.73,NNW,346,3.0,5.0,98,0.00,,,0.01,0.0,meteohub,2013-03-26 08:58:00,
2013-03-26 05:03:00,36.1,35.6,29.73,North,355,0.0,5.0,98,0.00,,,0.01,0.0,meteohub,2013-03-26 09:03:00,
2013-03-26 05:08:00,36.1,35.6,29.73,NNW,336,2.0,5.0,98,0.00,,,0.01,0.0,meteohub,2013-03-26 09:08:00,
2013-03-26 05:13:00,36.1,35.6,29.74,North,0,0.0,5.0,98,0.00,,,0.01,0.0,meteohub,2013-03-26 09:13:00,
2013-03-26 05:18:00,36.0,35.4,29.74,North,349,4.0,5.0,98,0.00,,,0.01,0.0,meteohub,2013-03-26 09:18:00,
2013-03-26 05:23:00,36.0,35.4,29.74,NNW,333,1.0,6.0,98,0.00,,,0.01,0.0,meteohub,2013-03-26 09:23:00,
2013-03-26 05:29:00,36.0,35.4,29.74,North,350,2.0,6.0,98,0.00,,,0.01,0.0,meteohub,2013-03-26 09:29:00,
2013-03-26 05:34:00,35.8,35.2,29.74,North,355,1.0,6.0,98,0.00,,,0.01,0.0,meteohub,2013-03-26 09:34:00,
2013-03-26 05:39:00,35.8,35.2,29.74,North,355,0.0,6.0,98,0.00,,,0.01,0.0,meteohub,2013-03-26 09:39:00,
2013-03-26 05:44:00,35.8,35.2,29.75,NE,37,1.0,6.0,98,0.00,,,0.01,0.0,meteohub,2013-03-26 09:44:00,
2013-03-26 05:49:00,35.8,35.2,29.75,North,0,0.0,6.0,98,0.00,,,0.01,0.0,meteohub,2013-03-26 09:49:00,
2013-03-26 05:54:00,35.8,35.2,29.75,North,5,3.0,4.0,98,0.00,,,0.01,0.0,meteohub,2013-03-26 09:54:00,
2013-03-26 05:59:00,35.8,35.2,29.75,NNE,22,2.0,4.0,98,0.00,,,0.01,0.0,meteohub,2013-03-26 09:59:00,
2013-03-26 06:04:00,35.8,35.2,29.75,NNE,17,0.0,4.0,98,0.00,,,0.01,0.0,meteohub,2013-03-26 10:04:00,
2013-03-26 06:09:00,35.8,35.2,29.76,NNW,340,1.0,4.0,98,0.00,,,0.01,0.0,meteohub,2013-03-26 10:09:00,
2013-03-26 06:14:00,35.8,35.2,29.76,NNW,342,4.0,4.0,98,0.00,,,0.01,0.0,meteohub,2013-03-26 10:14:00,
2013-03-26 06:19:00,35.8,35.2,29.76,North,0,1.0,4.0,98,0.00,,,0.01,0.0,meteohub,2013-03-26 10:19:00,
2013-03-26 06:25:00,35.6,35.1,29.76,NNW,333,0.0,4.0,98,0.00,,,0.01,0.0,meteohub,2013-03-26 10:25:00,
2013-03-26 06:30:00,35.6,35.1,29.76,NNE,13,0.0,5.0,98,0.00,,,0.01,0.0,meteohub,2013-03-26 10:30:00,
2013-03-26 06:35:00,35.6,35.1,29.77,NNW,340,0.0,5.0,98,0.00,,,0.01,0.0,meteohub,2013-03-26 10:35:00,
2013-03-26 06:40:00,35.4,34.9,29.77,NNW,342,0.0,5.0,98,0.00,,,0.01,0.0,meteohub,2013-03-26 10:40:00,
2013-03-26 06:45:00,35.4,34.9,29.78,NNW,342,2.0,5.0,98,0.00,,,0.01,0.0,meteohub,2013-03-26 10:45:00,
2013-03-26 06:50:00,35.4,34.9,29.78,NNW,342,0.0,5.0,98,0.00,,,0.01,0.0,meteohub,2013-03-26 10:50:00,
2013-03-26 06:55:00,35.2,34.7,29.78,NNW,342,0.0,5.0,98,0.00,,,0.01,0.0,meteohub,2013-03-26 10:55:00,
2013-03-26 07:00:00,35.2,34.5,29.78,NNW,342,1.0,5.0,97,0.00,,,0.01,0.0,meteohub,2013-03-26 11:00:00,
2013-03-26 07:06:00,35.1,34.3,29.78,NNW,342,1.0,5.0,97,0.00,,,0.01,5.0,meteohub,2013-03-26 11:06:00,
2013-03-26 07:11:00,34.9,34.3,29.78,NNW,344,2.0,2.0,98,0.00,,,0.01,9.0,meteohub,2013-03-26 11:11:00,
2013-03-26 07:16:00,34.9,34.3,29.79,NNW,344,0.0,2.0,98,0.00,,,0.01,12.0,meteohub,2013-03-26 11:16:00,
2013-03-26 07:22:00,34.9,34.3,29.79,NNW,343,0.0,2.0,98,0.00,,,0.01,16.0,meteohub,2013-03-26 11:22:00,
2013-03-26 07:27:00,34.9,34.3,29.79,NNW,344,0.0,2.0,98,0.00,,,0.01,18.0,meteohub,2013-03-26 11:27:00,
2013-03-26 07:32:00,34.7,34.2,29.79,NNW,344,0.0,2.0,98,0.00,,,0.01,21.0,meteohub,2013-03-26 11:32:00,
2013-03-26 07:37:00,34.7,34.2,29.79,NNW,344,0.0,2.0,98,0.00,,,0.01,28.0,meteohub,2013-03-26 11:37:00,
2013-03-26 07:42:00,34.7,34.2,29.80,NNW,343,0.0,2.0,98,0.00,,,0.01,47.0,meteohub,2013-03-26 11:42:00,
2013-03-26 07:47:00,34.9,34.3,29.80,NNW,344,0.0,2.0,98,0.00,,,0.01,33.0,meteohub,2013-03-26 11:47:00,
2013-03-26 07:52:00,34.9,34.3,29.80,NNW,344,2.0,2.0,98,0.00,,,0.01,67.0,meteohub,2013-03-26 11:52:00,
2013-03-26 07:57:00,35.1,34.5,29.80,NNW,348,0.0,2.0,98,0.00,,,0.01,95.0,meteohub,2013-03-26 11:57:00,
2013-03-26 08:03:00,35.2,34.7,29.80,NNW,347,0.0,2.0,98,0.00,,,0.01,62.0,meteohub,2013-03-26 12:03:00,
2013-03-26 08:08:00,35.4,35.2,29.80,NNW,347,1.0,2.0,99,0.00,,,0.01,40.0,meteohub,2013-03-26 12:08:00,
2013-03-26 08:13:00,35.8,35.6,29.81,North,5,2.0,2.0,99,0.00,,,0.01,76.0,meteohub,2013-03-26 12:13:00,
2013-03-26 08:18:00,36.0,35.8,29.81,North,0,2.0,2.0,99,0.00,,,0.01,88.0,meteohub,2013-03-26 12:18:00,
2013-03-26 08:23:00,36.3,36.1,29.81,North,0,3.0,5.0,99,0.00,,,0.01,135.0,meteohub,2013-03-26 12:23:00,
2013-03-26 08:28:00,36.5,36.3,29.81,North,355,0.0,5.0,99,0.00,,,0.01,46.0,meteohub,2013-03-26 12:28:00,
2013-03-26 08:33:00,36.9,36.3,29.81,North,355,3.0,5.0,98,0.00,,,0.01,84.0,meteohub,2013-03-26 12:33:00,
2013-03-26 08:38:00,37.2,36.7,29.81,North,355,0.0,5.0,98,0.00,,,0.02,111.0,meteohub,2013-03-26 12:38:00,
2013-03-26 08:43:00,37.6,37.0,29.81,NNW,345,2.0,5.0,98,0.00,,,0.02,114.0,meteohub,2013-03-26 12:43:00,
2013-03-26 08:48:00,37.8,37.0,29.81,WNW,288,2.0,5.0,97,0.00,,,0.02,127.0,meteohub,2013-03-26 12:48:00,
2013-03-26 08:54:00,38.1,37.0,29.81,North,0,2.0,7.0,96,0.01,,,0.02,135.0,meteohub,2013-03-26 12:54:00,
2013-03-26 08:59:00,38.5,37.2,29.81,NE,45,3.0,7.0,95,0.01,,,0.02,139.0,meteohub,2013-03-26 12:59:00,
2013-03-26 09:04:00,38.7,37.4,29.81,NW,324,1.0,7.0,95,0.01,,,0.02,388.0,meteohub,2013-03-26 13:04:00,
2013-03-26 09:09:00,39.0,37.4,29.81,North,11,1.0,7.0,94,0.01,,,0.02,387.0,meteohub,2013-03-26 13:09:00,
2013-03-26 09:14:00,39.4,37.6,29.82,NE,36,1.0,7.0,93,0.01,,,0.02,306.0,meteohub,2013-03-26 13:14:00,
2013-03-26 09:19:00,39.7,37.6,29.82,North,10,3.0,7.0,92,0.01,,,0.02,308.0,meteohub,2013-03-26 13:19:00,
2013-03-26 09:24:00,40.3,37.9,29.82,NNW,345,3.0,7.0,91,0.01,,,0.02,299.0,meteohub,2013-03-26 13:24:00,
2013-03-26 09:29:00,40.5,37.8,29.82,NNE,30,1.0,7.0,90,0.01,,,0.02,439.0,meteohub,2013-03-26 13:29:00,
2013-03-26 09:35:00,40.6,37.4,29.82,ENE,57,4.0,7.0,88,0.01,,,0.02,468.0,meteohub,2013-03-26 13:35:00,
2013-03-26 09:40:00,41.2,37.6,29.82,NNE,20,5.0,7.0,87,0.01,,,0.02,452.0,meteohub,2013-03-26 13:40:00,
2013-03-26 09:45:00,41.2,37.4,29.82,North,355,6.0,7.0,86,0.01,,,0.02,492.0,meteohub,2013-03-26 13:45:00,
2013-03-26 09:50:00,41.5,37.4,29.82,WNW,296,5.0,7.0,85,0.01,,,0.02,519.0,meteohub,2013-03-26 13:50:00,
2013-03-26 09:55:00,41.5,37.4,29.83,NNW,331,3.0,11.0,85,0.01,,,0.02,573.0,meteohub,2013-03-26 13:55:00,
2013-03-26 10:00:00,41.7,37.2,29.82,NW,317,7.0,11.0,84,0.01,,,0.02,585.0,meteohub,2013-03-26 14:00:00,
2013-03-26 10:05:00,41.7,36.9,29.83,West,279,5.0,11.0,83,0.01,,,0.02,591.0,meteohub,2013-03-26 14:05:00,
2013-03-26 10:10:00,41.9,36.9,29.83,NNE,20,7.0,11.0,82,0.01,,,0.03,619.0,meteohub,2013-03-26 14:10:00,
2013-03-26 10:16:00,42.3,37.4,29.83,North,0,2.0,11.0,83,0.01,,,0.03,594.0,meteohub,2013-03-26 14:16:00,
2013-03-26 10:21:00,42.6,37.2,29.83,North,0,4.0,11.0,81,0.01,,,0.03,587.0,meteohub,2013-03-26 14:21:00,
2013-03-26 10:26:00,42.8,37.4,29.83,NNE,16,2.0,14.0,81,0.01,,,0.03,621.0,meteohub,2013-03-26 14:26:00,
2013-03-26 10:31:00,43.2,37.8,29.83,North,349,1.0,14.0,81,0.01,,,0.03,705.0,meteohub,2013-03-26 14:31:00,
2013-03-26 10:36:00,43.3,37.6,29.83,NNW,348,5.0,14.0,80,0.01,,,0.03,657.0,meteohub,2013-03-26 14:36:00,
2013-03-26 10:42:00,43.3,36.9,29.83,NNW,331,3.0,14.0,78,0.01,,,0.03,745.0,meteohub,2013-03-26 14:42:00,
2013-03-26 10:47:00,43.3,37.2,29.83,East,80,5.0,14.0,79,0.01,,,0.04,635.0,meteohub,2013-03-26 14:47:00,
2013-03-26 10:52:00,43.7,36.7,29.84,North,0,4.0,14.0,76,0.01,,,0.04,622.0,meteohub,2013-03-26 14:52:00,
2013-03-26 10:57:00,44.1,37.0,29.83,NW,321,5.0,14.0,76,0.01,,,0.04,684.0,meteohub,2013-03-26 14:57:00,
2013-03-26 11:02:00,44.2,36.9,29.84,North,5,5.0,12.0,75,0.01,,,0.04,738.0,meteohub,2013-03-26 15:02:00,
2013-03-26 11:07:00,44.2,36.5,29.84,North,0,7.0,12.0,74,0.01,,,0.04,786.0,meteohub,2013-03-26 15:07:00,
2013-03-26 11:12:00,44.4,36.7,29.84,NNE,19,5.0,12.0,74,0.01,,,0.04,828.0,meteohub,2013-03-26 15:12:00,
2013-03-26 11:17:00,44.2,36.1,29.84,NNW,345,4.0,12.0,73,0.01,,,0.04,812.0,meteohub,2013-03-26 15:17:00,
2013-03-26 11:22:00,44.4,36.3,29.84,NW,314,7.0,12.0,73,0.01,,,0.04,838.0,meteohub,2013-03-26 15:22:00,
2013-03-26 11:27:00,45.0,36.9,29.84,NW,323,4.0,14.0,73,0.01,,,0.04,904.0,meteohub,2013-03-26 15:27:00,
2013-03-26 11:32:00,45.3,36.5,29.84,North,9,5.0,14.0,71,0.01,,,0.04,898.0,meteohub,2013-03-26 15:32:00,
2013-03-26 11:37:00,45.7,36.5,29.84,NNW,336,9.0,14.0,70,0.01,,,0.04,935.0,meteohub,2013-03-26 15:37:00,
2013-03-26 11:42:00,45.1,36.0,29.84,NNW,336,2.0,14.0,70,0.01,,,0.04,149.0,meteohub,2013-03-26 15:42:00,
2013-03-26 11:47:00,45.0,36.1,29.84,NNW,348,6.0,14.0,71,0.01,,,0.04,193.0,meteohub,2013-03-26 15:47:00,
2013-03-26 11:52:00,45.0,35.8,29.84,NE,36,3.0,14.0,70,0.01,,,0.04,933.0,meteohub,2013-03-26 15:52:00,
2013-03-26 11:57:00,45.7,36.9,29.85,North,355,4.0,15.0,71,0.00,,,0.04,969.0,meteohub,2013-03-26 15:57:00,
2013-03-26 12:03:00,46.4,36.9,29.84,NW,325,7.0,15.0,69,0.00,,,0.04,1086.0,meteohub,2013-03-26 16:03:00,
2013-03-26 12:08:00,46.0,35.8,29.84,NNW,346,2.0,15.0,67,0.00,,,0.04,193.0,meteohub,2013-03-26 16:08:00,
2013-03-26 12:13:00,46.2,36.3,29.85,NE,56,3.0,15.0,68,0.00,,,0.04,1011.0,meteohub,2013-03-26 16:13:00,
2013-03-26 12:18:00,46.8,36.0,29.84,NNW,329,5.0,15.0,66,0.00,,,0.04,1032.0,meteohub,2013-03-26 16:18:00,
2013-03-26 12:23:00,46.2,35.4,29.84,NNW,342,8.0,15.0,66,0.00,,,0.04,230.0,meteohub,2013-03-26 16:23:00,
2013-03-26 12:28:00,46.0,35.8,29.85,NNE,33,4.0,15.0,67,0.00,,,0.04,171.0,meteohub,2013-03-26 16:28:00,
2013-03-26 12:33:00,45.7,35.4,29.85,NE,44,1.0,13.0,67,0.00,,,0.04,1014.0,meteohub,2013-03-26 16:33:00,
2013-03-26 12:39:00,46.2,36.0,29.84,NW,321,4.0,13.0,67,0.00,,,0.04,1118.0,meteohub,2013-03-26 16:39:00,
2013-03-26 12:44:00,46.8,35.2,29.85,NE,36,3.0,13.0,64,0.00,,,0.04,220.0,meteohub,2013-03-26 16:44:00,
2013-03-26 12:49:00,46.6,35.4,29.84,ENE,71,5.0,13.0,65,0.00,,,0.04,1055.0,meteohub,2013-03-26 16:49:00,
2013-03-26 12:54:00,47.1,36.3,29.84,North,350,2.0,13.0,66,0.00,,,0.04,267.0,meteohub,2013-03-26 16:54:00,
2013-03-26 12:59:00,47.5,36.3,29.84,NW,305,5.0,13.0,65,0.00,,,0.04,287.0,meteohub,2013-03-26 16:59:00,
2013-03-26 13:04:00,46.9,35.4,29.84,WNW,298,4.0,13.0,64,0.00,,,0.04,213.0,meteohub,2013-03-26 17:04:00,
2013-03-26 13:09:00,46.9,34.5,29.84,NE,36,3.0,13.0,62,0.00,,,0.04,988.0,meteohub,2013-03-26 17:09:00,
2013-03-26 13:14:00,46.9,34.5,29.84,North,355,2.0,12.0,62,0.00,,,0.04,967.0,meteohub,2013-03-26 17:14:00,
2013-03-26 13:20:00,47.8,35.8,29.84,North,11,0.0,12.0,63,0.00,,,0.04,1037.0,meteohub,2013-03-26 17:20:00,
2013-03-26 13:25:00,47.8,35.1,29.84,NNW,340,3.0,12.0,61,0.00,,,0.04,144.0,meteohub,2013-03-26 17:25:00,
2013-03-26 13:30:00,47.3,35.4,29.84,North,5,4.0,12.0,63,0.00,,,0.04,962.0,meteohub,2013-03-26 17:30:00,
2013-03-26 13:35:00,47.7,34.9,29.84,NNW,348,4.0,12.0,61,0.00,,,0.04,983.0,meteohub,2013-03-26 17:35:00,
2013-03-26 13:40:00,48.2,36.1,29.84,North,355,5.0,12.0,63,0.00,,,0.04,1143.0,meteohub,2013-03-26 17:40:00,
2013-03-26 13:45:00,48.4,36.0,29.84,North,9,3.0,12.0,62,0.00,,,0.04,174.0,meteohub,2013-03-26 17:45:00,
2013-03-26 13:50:00,47.7,36.1,29.84,North,355,10.0,12.0,64,0.00,,,0.04,113.0,meteohub,2013-03-26 17:50:00,
2013-03-26 13:56:00,46.8,35.2,29.84,NW,315,4.0,11.0,64,0.00,,,0.04,107.0,meteohub,2013-03-26 17:56:00,
2013-03-26 14:02:00,46.0,34.9,29.84,NNE,18,1.0,11.0,65,0.00,,,0.04,137.0,meteohub,2013-03-26 18:02:00,
2013-03-26 14:07:00,46.0,34.9,29.84,North,350,3.0,11.0,65,0.00,,,0.04,153.0,meteohub,2013-03-26 18:07:00,
2013-03-26 14:12:00,46.0,35.2,29.84,North,9,5.0,11.0,66,0.00,,,0.04,142.0,meteohub,2013-03-26 18:12:00,
2013-03-26 14:17:00,46.0,35.2,29.84,NNE,19,3.0,11.0,66,0.00,,,0.04,127.0,meteohub,2013-03-26 18:17:00,
2013-03-26 14:22:00,45.9,35.1,29.84,NNW,344,6.0,10.0,66,0.00,,,0.04,142.0,meteohub,2013-03-26 18:22:00,
2013-03-26 14:27:00,45.9,34.3,29.85,NNE,25,3.0,10.0,64,0.00,,,0.04,179.0,meteohub,2013-03-26 18:27:00,
2013-03-26 14:33:00,45.9,34.7,29.85,NW,322,3.0,10.0,65,0.00,,,0.04,183.0,meteohub,2013-03-26 18:33:00,
2013-03-26 14:38:00,46.0,34.5,29.85,North,355,2.0,10.0,64,0.00,,,0.04,137.0,meteohub,2013-03-26 18:38:00,
2013-03-26 14:43:00,46.2,35.1,29.85,North,9,0.0,10.0,65,0.00,,,0.04,90.0,meteohub,2013-03-26 18:43:00,
2013-03-26 14:48:00,46.0,34.5,29.85,North,349,4.0,10.0,64,0.00,,,0.04,76.0,meteohub,2013-03-26 18:48:00,
2013-03-26 14:53:00,45.7,34.5,29.85,North,0,1.0,12.0,65,0.00,,,0.04,100.0,meteohub,2013-03-26 18:53:00,
2013-03-26 14:58:00,45.7,35.1,29.85,NNE,22,1.0,12.0,66,0.00,,,0.04,197.0,meteohub,2013-03-26 18:58:00,
2013-03-26 15:03:00,45.9,34.7,29.85,North,355,3.0,12.0,65,0.00,,,0.04,260.0,meteohub,2013-03-26 19:03:00,
2013-03-26 15:08:00,45.9,34.7,29.84,NNW,327,3.0,12.0,65,0.00,,,0.04,193.0,meteohub,2013-03-26 19:08:00,
2013-03-26 15:13:00,46.0,35.2,29.84,NNE,15,3.0,12.0,66,0.00,,,0.04,160.0,meteohub,2013-03-26 19:13:00,
2013-03-26 15:19:00,46.0,34.5,29.84,NNW,342,0.0,12.0,64,0.00,,,0.04,185.0,meteohub,2013-03-26 19:19:00,
2013-03-26 15:24:00,46.2,34.7,29.84,NNE,26,2.0,7.0,64,0.00,,,0.04,323.0,meteohub,2013-03-26 19:24:00,
2013-03-26 15:29:00,46.8,35.2,29.84,NNE,18,2.0,7.0,64,0.00,,,0.04,1030.0,meteohub,2013-03-26 19:29:00,
2013-03-26 15:34:00,47.5,35.6,29.84,NNW,342,5.0,7.0,63,0.00,,,0.04,234.0,meteohub,2013-03-26 19:34:00,
2013-03-26 15:39:00,47.7,35.2,29.84,North,350,0.0,7.0,62,0.00,,,0.04,162.0,meteohub,2013-03-26 19:39:00,
2013-03-26 15:44:00,47.5,35.1,29.84,NW,304,3.0,7.0,62,0.00,,,0.04,137.0,meteohub,2013-03-26 19:44:00,
2013-03-26 15:49:00,47.1,34.3,29.84,NW,311,2.0,7.0,61,0.00,,,0.04,98.0,meteohub,2013-03-26 19:49:00,
2013-03-26 15:54:00,46.8,34.5,29.84,NW,318,0.0,7.0,62,0.00,,,0.04,62.0,meteohub,2013-03-26 19:54:00,
2013-03-26 15:59:00,46.8,34.0,29.84,North,350,1.0,7.0,61,0.00,,,0.04,65.0,meteohub,2013-03-26 19:59:00,
2013-03-26 16:04:00,46.8,34.5,29.84,North,5,0.0,7.0,62,0.00,,,0.04,79.0,meteohub,2013-03-26 20:04:00,
2013-03-26 16:09:00,46.8,33.6,29.84,NNE,30,2.0,7.0,60,0.00,,,0.04,69.0,meteohub,2013-03-26 20:09:00,
2013-03-26 16:14:00,46.8,33.6,29.84,NNE,17,3.0,7.0,60,0.00,,,0.04,72.0,meteohub,2013-03-26 20:14:00,
2013-03-26 16:19:00,46.9,32.9,29.84,North,0,5.0,7.0,58,0.00,,,0.04,127.0,meteohub,2013-03-26 20:19:00,
2013-03-26 16:24:00,47.1,34.0,29.84,North,0,6.0,7.0,60,0.00,,,0.04,193.0,meteohub,2013-03-26 20:24:00,
2013-03-26 16:30:00,47.5,33.4,29.84,NNE,17,2.0,7.0,58,0.00,,,0.04,225.0,meteohub,2013-03-26 20:30:00,
2013-03-26 16:35:00,48.0,34.3,29.84,North,0,3.0,7.0,59,0.00,,,0.04,485.0,meteohub,2013-03-26 20:35:00,
2013-03-26 16:40:00,48.7,33.8,29.84,NNW,348,3.0,7.0,56,0.00,,,0.04,279.0,meteohub,2013-03-26 20:40:00,
2013-03-26 16:45:00,48.7,33.3,29.84,North,355,2.0,7.0,55,0.00,,,0.04,292.0,meteohub,2013-03-26 20:45:00,
2013-03-26 16:50:00,49.3,34.7,29.84,NNE,14,1.0,7.0,57,0.00,,,0.04,220.0,meteohub,2013-03-26 20:50:00,
2013-03-26 16:55:00,49.5,34.0,29.84,NW,325,4.0,9.0,55,0.00,,,0.04,330.0,meteohub,2013-03-26 20:55:00,
2013-03-26 17:00:00,49.5,33.4,29.84,NNE,24,2.0,9.0,54,0.00,,,0.04,127.0,meteohub,2013-03-26 21:00:00,
2013-03-26 17:06:00,49.1,33.3,29.84,NNW,336,4.0,9.0,54,0.00,,,0.04,137.0,meteohub,2013-03-26 21:06:00,
2013-03-26 17:11:00,48.9,33.4,29.84,North,350,0.0,9.0,55,0.00,,,0.04,172.0,meteohub,2013-03-26 21:11:00,
2013-03-26 17:16:00,48.9,32.5,29.84,North,350,3.0,9.0,53,0.00,,,0.04,118.0,meteohub,2013-03-26 21:16:00,
2013-03-26 17:21:00,48.9,32.5,29.84,North,355,1.0,9.0,53,0.00,,,0.04,84.0,meteohub,2013-03-26 21:21:00,
2013-03-26 17:26:00,48.9,32.5,29.84,NNE,18,4.0,9.0,53,0.00,,,0.04,74.0,meteohub,2013-03-26 21:26:00,
2013-03-26 17:31:00,48.9,32.5,29.85,WNW,298,5.0,9.0,53,0.00,,,0.04,62.0,meteohub,2013-03-26 21:31:00,
2013-03-26 17:36:00,48.7,32.4,29.85,NNE,13,3.0,8.0,53,0.00,,,0.04,84.0,meteohub,2013-03-26 21:36:00,
2013-03-26 17:42:00,48.7,32.9,29.85,NNW,335,2.0,8.0,54,0.00,,,0.04,116.0,meteohub,2013-03-26 21:42:00,
2013-03-26 17:47:00,48.7,32.9,29.85,NNE,19,2.0,8.0,54,0.00,,,0.04,88.0,meteohub,2013-03-26 21:47:00,
2013-03-26 17:52:00,48.7,32.4,29.85,North,5,1.0,8.0,53,0.00,,,0.04,63.0,meteohub,2013-03-26 21:52:00,
2013-03-26 17:57:00,48.7,32.9,29.85,NNE,13,2.0,9.0,54,0.00,,,0.04,65.0,meteohub,2013-03-26 21:57:00,
2013-03-26 18:02:00,48.6,32.7,29.85,NNE,16,0.0,9.0,54,0.00,,,0.04,113.0,meteohub,2013-03-26 22:02:00,
2013-03-26 18:07:00,48.6,32.7,29.86,North,355,1.0,9.0,54,0.00,,,0.04,40.0,meteohub,2013-03-26 22:07:00,
2013-03-26 18:13:00,48.6,32.7,29.86,NNE,17,1.0,9.0,54,0.00,,,0.04,42.0,meteohub,2013-03-26 22:13:00,
2013-03-26 18:18:00,48.4,32.9,29.86,North,11,0.0,7.0,55,0.00,,,0.04,53.0,meteohub,2013-03-26 22:18:00,
2013-03-26 18:23:00,48.4,32.9,29.86,North,355,3.0,7.0,55,0.00,,,0.04,51.0,meteohub,2013-03-26 22:23:00,
2013-03-26 18:28:00,48.4,32.5,29.86,NNW,348,6.0,7.0,54,0.00,,,0.04,30.0,meteohub,2013-03-26 22:28:00,
2013-03-26 18:33:00,48.4,33.4,29.87,WNW,303,5.0,7.0,56,0.00,,,0.04,25.0,meteohub,2013-03-26 22:33:00,
2013-03-26 18:38:00,48.2,33.6,29.87,NNW,333,5.0,7.0,57,0.00,,,0.04,25.0,meteohub,2013-03-26 22:38:00,
2013-03-26 18:43:00,48.0,33.4,29.87,NNW,336,5.0,7.0,57,0.00,,,0.04,25.0,meteohub,2013-03-26 22:43:00,
2013-03-26 18:48:00,47.8,33.8,29.87,North,350,0.0,10.0,58,0.00,,,0.04,19.0,meteohub,2013-03-26 22:48:00,
2013-03-26 18:54:00,47.8,33.8,29.87,North,5,3.0,10.0,58,0.00,,,0.04,18.0,meteohub,2013-03-26 22:54:00,
2013-03-26 18:59:00,47.7,34.0,29.88,North,355,0.0,10.0,59,0.00,,,0.04,16.0,meteohub,2013-03-26 22:59:00,
2013-03-26 19:04:00,47.5,33.8,29.88,North,0,2.0,10.0,59,0.00,,,0.04,12.0,meteohub,2013-03-26 23:04:00,
2013-03-26 19:09:00,47.3,34.2,29.89,NNW,348,0.0,10.0,60,0.00,,,0.04,12.0,meteohub,2013-03-26 23:09:00,
2013-03-26 19:14:00,47.1,34.0,29.89,NNE,19,5.0,10.0,60,0.00,,,0.04,9.0,meteohub,2013-03-26 23:14:00,
2013-03-26 19:19:00,47.1,34.0,29.89,NNW,347,4.0,9.0,60,0.00,,,0.04,5.0,meteohub,2013-03-26 23:19:00,
2013-03-26 19:24:00,47.1,34.3,29.89,North,355,0.0,9.0,61,0.00,,,0.04,0.0,meteohub,2013-03-26 23:24:00,
2013-03-26 19:30:00,46.9,34.2,29.89,NNW,333,2.0,9.0,61,0.00,,,0.04,0.0,meteohub,2013-03-26 23:30:00,
2013-03-26 19:35:00,46.8,34.5,29.89,NNE,13,3.0,7.0,62,0.00,,,0.04,0.0,meteohub,2013-03-26 23:35:00,
2013-03-26 19:40:00,46.8,34.5,29.90,NNW,345,2.0,7.0,62,0.00,,,0.04,0.0,meteohub,2013-03-26 23:40:00,
2013-03-26 19:45:00,46.8,34.5,29.90,NW,326,4.0,7.0,62,0.00,,,0.04,0.0,meteohub,2013-03-26 23:45:00,
2013-03-26 19:50:00,46.8,34.5,29.90,North,351,0.0,7.0,62,0.00,,,0.04,0.0,meteohub,2013-03-26 23:50:00,
2013-03-26 19:55:00,46.8,34.0,29.91,NNW,341,4.0,9.0,61,0.00,,,0.04,0.0,meteohub,2013-03-26 23:55:00,
2013-03-26 20:00:00,46.8,34.0,29.91,NNE,15,3.0,9.0,61,0.00,,,0.04,0.0,meteohub,2013-03-27 00:00:00,
2013-03-26 20:05:00,46.8,33.6,29.91,North,349,6.0,9.0,60,0.00,,,0.04,0.0,meteohub,2013-03-27 00:05:00,
2013-03-26 20:10:00,46.9,33.8,29.91,NNW,346,3.0,9.0,60,0.00,,,0.04,0.0,meteohub,2013-03-27 00:10:00,
2013-03-26 20:16:00,46.9,34.2,29.91,North,355,3.0,8.0,61,0.00,,,0.04,0.0,meteohub,2013-03-27 00:16:00,
2013-03-26 20:21:00,46.9,33.8,29.92,North,5,1.0,8.0,60,0.00,,,0.04,0.0,meteohub,2013-03-27 00:21:00,
2013-03-26 20:27:00,46.8,34.0,29.92,NNW,344,3.0,8.0,61,0.00,,,0.04,0.0,meteohub,2013-03-27 00:27:00,
2013-03-26 20:32:00,46.9,33.8,29.92,NW,325,1.0,8.0,60,0.00,,,0.04,0.0,meteohub,2013-03-27 00:32:00,
2013-03-26 20:37:00,46.9,34.2,29.92,NNW,348,2.0,10.0,61,0.00,,,0.04,0.0,meteohub,2013-03-27 00:37:00,
2013-03-26 20:42:00,46.8,34.0,29.92,North,0,1.0,10.0,61,0.00,,,0.04,0.0,meteohub,2013-03-27 00:42:00,
2013-03-26 20:47:00,46.8,34.5,29.92,NNW,347,2.0,10.0,62,0.00,,,0.04,0.0,meteohub,2013-03-27 00:47:00,
2013-03-26 20:52:00,46.6,34.3,29.92,North,355,1.0,10.0,62,0.00,,,0.04,0.0,meteohub,2013-03-27 00:52:00,
2013-03-26 20:57:00,46.6,34.3,29.92,North,350,3.0,7.0,62,0.00,,,0.04,0.0,meteohub,2013-03-27 00:57:00,
2013-03-26 21:02:00,46.4,34.2,29.92,NNW,340,1.0,7.0,62,0.00,,,0.04,0.0,meteohub,2013-03-27 01:02:00,
2013-03-26 21:07:00,46.2,34.0,29.92,NNW,338,1.0,7.0,62,0.00,,,0.04,0.0,meteohub,2013-03-27 01:07:00,
2013-03-26 21:12:00,46.0,34.2,29.93,North,0,2.0,7.0,63,0.00,,,0.04,0.0,meteohub,2013-03-27 01:12:00,
2013-03-26 21:17:00,45.9,34.0,29.93,NNW,348,1.0,7.0,63,0.00,,,0.04,0.0,meteohub,2013-03-27 01:17:00,
2013-03-26 21:22:00,45.9,34.0,29.93,North,355,1.0,7.0,63,0.00,,,0.04,0.0,meteohub,2013-03-27 01:22:00,
2013-03-26 21:27:00,45.9,34.3,29.94,NW,323,2.0,7.0,64,0.00,,,0.04,0.0,meteohub,2013-03-27 01:27:00,
2013-03-26 21:32:00,45.7,33.8,29.94,NW,307,4.0,7.0,63,0.00,,,0.04,0.0,meteohub,2013-03-27 01:32:00,
2013-03-26 21:37:00,45.7,33.8,29.94,NNW,344,3.0,9.0,63,0.00,,,0.04,0.0,meteohub,2013-03-27 01:37:00,
2013-03-26 21:42:00,45.9,34.0,29.94,NNW,340,1.0,9.0,63,0.00,,,0.04,0.0,meteohub,2013-03-27 01:42:00,
2013-03-26 21:47:00,45.9,33.6,29.94,NNW,342,1.0,9.0,62,0.00,,,0.04,0.0,meteohub,2013-03-27 01:47:00,
2013-03-26 21:52:00,45.9,34.0,29.94,North,355,4.0,9.0,63,0.00,,,0.04,0.0,meteohub,2013-03-27 01:52:00,
2013-03-26 21:57:00,45.9,34.0,29.94,North,5,2.0,9.0,63,0.00,,,0.04,0.0,meteohub,2013-03-27 01:57:00,
2013-03-26 22:03:00,45.9,33.6,29.95,NNW,347,3.0,9.0,62,0.00,,,0.04,0.0,meteohub,2013-03-27 02:03:00,
2013-03-26 22:08:00,45.9,33.6,29.95,North,0,3.0,9.0,62,0.00,,,0.04,0.0,meteohub,2013-03-27 02:08:00,
2013-03-26 22:13:00,45.9,33.6,29.95,North,355,7.0,9.0,62,0.00,,,0.04,0.0,meteohub,2013-03-27 02:13:00,
2013-03-26 22:18:00,45.9,33.6,29.95,NNE,17,1.0,10.0,62,0.00,,,0.04,0.0,meteohub,2013-03-27 02:18:00,
2013-03-26 22:23:00,45.9,33.6,29.95,NW,319,0.0,10.0,62,0.00,,,0.04,0.0,meteohub,2013-03-27 02:23:00,
2013-03-26 22:28:00,45.7,33.4,29.95,WNW,291,5.0,10.0,62,0.00,,,0.04,0.0,meteohub,2013-03-27 02:28:00,
2013-03-26 22:33:00,45.7,33.4,29.95,North,355,2.0,9.0,62,0.00,,,0.04,0.0,meteohub,2013-03-27 02:33:00,
2013-03-26 22:38:00,45.3,33.4,29.95,North,0,4.0,9.0,63,0.00,,,0.04,0.0,meteohub,2013-03-27 02:38:00,
2013-03-26 22:44:00,45.3,33.1,29.95,NNW,348,6.0,9.0,62,0.00,,,0.04,0.0,meteohub,2013-03-27 02:44:00,
2013-03-26 22:49:00,45.3,33.4,29.96,NNW,335,2.0,9.0,63,0.00,,,0.04,0.0,meteohub,2013-03-27 02:49:00,
2013-03-26 22:54:00,45.1,33.3,29.95,NNE,14,6.0,11.0,63,0.00,,,0.04,0.0,meteohub,2013-03-27 02:54:00,
2013-03-26 22:59:00,45.1,33.3,29.96,NW,307,3.0,11.0,63,0.00,,,0.04,0.0,meteohub,2013-03-27 02:59:00,
2013-03-26 23:04:00,45.0,33.1,29.95,NNW,333,9.0,11.0,63,0.00,,,0.04,0.0,meteohub,2013-03-27 03:04:00,
2013-03-26 23:09:00,45.0,33.1,29.96,North,0,5.0,11.0,63,0.00,,,0.04,0.0,meteohub,2013-03-27 03:09:00,
2013-03-26 23:14:00,45.0,33.1,29.96,North,0,8.0,13.0,63,0.00,,,0.04,0.0,meteohub,2013-03-27 03:14:00,
2013-03-26 23:20:00,44.8,33.3,29.96,North,11,3.0,13.0,64,0.00,,,0.04,0.0,meteohub,2013-03-27 03:20:00,
2013-03-26 23:25:00,44.8,33.3,29.96,NNW,345,3.0,13.0,64,0.00,,,0.04,0.0,meteohub,2013-03-27 03:25:00,
2013-03-26 23:30:00,44.6,33.3,29.96,NNW,346,4.0,13.0,64,0.00,,,0.04,0.0,meteohub,2013-03-27 03:30:00,
2013-03-26 23:35:00,44.4,33.4,29.96,North,5,13.0,14.0,65,0.00,,,0.04,0.0,meteohub,2013-03-27 03:35:00,
2013-03-26 23:40:00,44.2,33.3,29.96,NNW,334,5.0,14.0,65,0.00,,,0.04,0.0,meteohub,2013-03-27 03:40:00,
2013-03-26 23:45:00,44.2,33.6,29.95,NW,317,3.0,14.0,66,0.00,,,0.04,0.0,meteohub,2013-03-27 03:45:00,
2013-03-26 23:50:00,44.1,33.4,29.95,North,0,10.0,14.0,66,0.00,,,0.04,0.0,meteohub,2013-03-27 03:50:00,
2013-03-26 23:55:00,44.1,33.4,29.96,NNW,341,5.0,17.0,66,0.00,,,0.04,0.0,meteohub,2013-03-27 03:55:00,